Simultaneous Nadir Overpasses (SNOs) Predictions

Prediction of SNOs between METOP-B and NOAA-19 Satellite Orbit:

Table of predicted SNOs for the next 14.0 days since TLE Epoch: 5/31/2014
Index Date (METOP-B) Time (METOP-B) Lat,Lon (METOP-B) SZA (METOP-B ) Date (NOAA-19) Time (NOAA-19) Lat,Lon (NOAA-19) SZA (NOAA-19 ) Distance(km) Time Diff (sec)
1 06/03/2014 14:19:56 74.12, -39.78 51.74 06/03/2014 14:18:43 74.13, -40.38 51.78 18.39 73
2 06/03/2014 15:10:40 -73.98, 127.20 128.40 06/03/2014 15:09:36 -74.01, 127.19 128.36 3.48 64
3 06/03/2014 16:01:21 73.95, -65.54 51.58 06/03/2014 16:00:43 73.96, -65.45 51.58 2.78 38
4 06/03/2014 16:52:02 -73.96, 101.81 128.43 06/03/2014 16:51:39 -73.98, 101.75 128.40 3.10 23
5 06/03/2014 17:42:43 73.93, -90.93 51.55 06/03/2014 17:42:46 73.93, -90.88 51.54 1.61 3
6 06/03/2014 18:33:24 -73.94, 76.42 128.45 06/03/2014 18:33:42 -73.95, 76.31 128.44 3.57 18
7 06/03/2014 19:24:05 73.91,-116.32 51.52 06/03/2014 19:24:49 73.89,-116.32 51.50 1.77 44
8 06/03/2014 20:14:47 -73.87, 50.91 128.53 06/03/2014 20:15:44 -73.87, 51.00 128.53 2.81 57
9 06/03/2014 21:05:36 73.44,-142.76 51.07 06/03/2014 21:06:45 73.52,-140.92 51.09 58.79 69
10 06/13/2014 20:07:32 -74.41, 54.01 128.87 06/13/2014 20:06:22 -74.42, 52.07 128.79 57.86 70
11 06/13/2014 20:58:20 74.03,-139.61 50.78 06/13/2014 20:57:21 74.04,-139.71 50.80 3.07 59
12 06/13/2014 21:49:02 -74.00, 27.63 129.26 06/13/2014 21:48:17 -74.01, 27.64 129.24 1.27 45
13 06/13/2014 22:39:43 73.96,-165.13
